Location: Austin
(30.3000°N, 97.7500°W)
Time: 20:56:47
(UTC-05:00)

Daily predictions for brighter satellites

Satellite Brightness Start Highest point End
(mag) Time Altitude Azimuth Time Altitude Azimuth Time Altitude Azimuth
CZ-3C R/B 4.3 20:19:08 10° SW 20:26:33 47° SSE 21:14:06 10° E
USA 215 3.3 20:25:53 10° NE 20:32:20 62° SE 20:38:46 10° SSW
COSMOS 2428 2.7 20:29:48 10° SSW 20:35:27 76° ESE 20:41:07 10° NNE
FengYun 1-2 T 4.5 20:31:59 10° S 20:37:30 77° WSW 20:43:07 10° NNW
SJ 16-02 1.5 20:36:19 10° S 20:40:34 50° ESE 20:44:50 10° NNE
Cosmos 1939 Rocket 4.0 20:37:55 10° SE 20:41:09 25° ENE 20:44:26 10° NNE
Cosmos 2333 Rocket 2.3 20:36:32 10° S 20:42:04 54° ESE 20:47:39 10° NNE
Cosmos 2360 Rocket 4.4 20:37:53 10° SW 20:42:51 32° WNW 20:47:53 10° N
DASH 3.8 20:43:13 10° SSW 20:45:16 14° S 20:46:44 10° SE
Envisat 3.0 20:41:06 10° SSE 20:46:09 80° ENE 20:51:15 10° N
ATLAS 5 CENTAUR R/B 3.0 20:46:06 10° S 20:48:58 31° ESE 20:55:35 10° NE
Cosmos 2263 Rocket 4.0 20:44:09 10° NW 20:49:03 32° WSW 20:53:57 10° SSW
Cosmos 2150 Rocket 4.4 20:48:08 10° SSW 20:53:17 68° WNW 20:58:25 10° N
RESURS DK-1 3.3 20:52:10 10° N 20:55:53 31° ENE 20:58:54 14° ESE
Meteor 1-27 Rocket 3.9 20:52:11 10° N 20:57:52 76° W 21:03:24 10° S
Cosmos 1633 2.4 20:55:27 10° S 20:59:01 77° E 21:02:36 10° N
PSLV R/B 3.0 20:56:55 10° SW 21:00:01 62° SSE 21:03:06 10° ENE
SJ-6B 2.7 20:57:46 10° SSE 21:01:43 72° ENE 21:05:34 10° N
Cosmos 2221 Rocket 3.6 20:57:21 10° N 21:01:54 81° E 21:06:22 10° S
EO 1 Del DPAF 3.5 20:58:26 10° N 21:02:14 72° WNW 21:06:01 10° SSW
Meteor 1-20 Rocket 4.5 20:58:59 10° SSE 21:04:31 49° E 21:09:58 10° NNE
NOSS 0 Rocket 4.0 21:00:22 10° S 21:06:28 60° ESE 21:12:34 10° NNE
Cosmos 2237 Rocket 2.5 21:02:04 10° S 21:07:26 45° ESE 21:12:49 10° NE
Cosmos 1844 4.0 21:03:45 10° N 21:09:12 47° ENE 21:13:25 16° SE
Delta 198 4.0 21:05:41 10° WSW 21:09:14 36° S 21:11:38 20° ESE
Cosmos 372 Rocket 3.8 21:06:33 10° S 21:11:37 74° ESE 21:16:43 10° NNE
Cosmos 1980 3.8 21:06:58 10° S 21:12:26 54° ESE 21:17:55 10° NNE
Cosmos 2084 3.8 21:09:57 10° S 21:14:14 43° ESE 21:18:19 10° NE
Cosmos 158 Rocket 4.1 21:12:28 10° N 21:17:29 56° ENE 21:21:17 18° SE
USA 186 1.2 21:16:50 20° SSE 21:18:31 85° ENE 21:21:20 10° N
Cosmos 1727 Rocket 4.2 21:12:35 10° SSE 21:18:38 49° E 21:24:39 10° NNE
Cosmos 1733 Rocket 3.0 21:17:22 10° S 21:21:49 90° NNW 21:26:16 10° N
Cosmos 1605 Rocket 4.2 21:16:04 10° N 21:22:18 52° E 21:27:32 15° SSE
Lacrosse 5 rocket 3.8 21:22:21 10° WNW 21:25:33 20° WSW 21:28:51 10° SSW
Timation 1 Rocket 4.4 21:20:27 10° NNW 21:26:28 79° WSW 21:32:02 12° SSE
SEDSat Delta rocket 4.4 21:20:46 10° SW 21:26:50 42° SSE 21:30:40 22° E
ATLAS CENTAUR R/B 3.5 21:26:23 10° NNE 21:29:33 17° NE 21:30:38 16° ENE
Cosmos 1356 3.5 21:27:43 10° N 21:31:07 52° E 21:31:55 41° SE
Cosmos 1125 Rocket 3.5 21:26:18 10° SSW 21:31:29 84° WNW 21:36:41 10° NNE
SJ-11-01 4.2 21:29:17 19° SSE 21:32:36 73° ENE 21:37:15 10° N
Cosmos 1934 Rocket 4.0 21:27:20 10° N 21:33:23 80° W 21:39:30 10° S
NOAA 11 4.1 21:30:05 17° SSE 21:34:23 73° ENE 21:39:53 10° N
Cosmos 2219 Rocket 3.6 21:29:54 10° SW 21:35:08 41° WNW 21:40:25 10° N
Cosmos 1844 Rocket 2.9 21:30:46 10° NNW 21:36:19 71° WSW 21:40:51 16° S
Okean 3 3.5 21:35:35 10° N 21:39:48 57° E 21:41:02 40° SE
ERBS 2.9 21:38:00 10° NW 21:41:17 51° SW 21:42:07 39° S
Aurora 2 Rocket 4.0 21:38:40 10° SW 21:43:20 25° S 21:43:24 25° SSE
SL-16 R/B 2.8 21:43:11 33° ESE 21:43:23 33° ESE 21:48:25 10° NE
Resurs 01 Rocket 1.5 21:41:44 28° SSE 21:44:03 85° ENE 21:48:29 10° N
Cosmos 1340 Rocket 2.9 21:41:48 10° N 21:45:47 53° E 21:46:12 51° ESE
Meteor 1-11 Rocket 4.4 21:47:32 33° E 21:48:02 34° E 21:53:18 10° NNE
IUS-1 SRM-2 3.9 21:45:43 10° SW 21:49:29 52° SSE 22:06:18 10° E
Cosmos 1602 3.6 21:49:34 58° SE 21:50:07 69° E 21:54:02 10° NNE
Cosmos 1674 Rocket 3.4 21:46:54 10° N 21:51:22 79° E 21:52:44 44° SSE
Sakura Rocket 3.9 21:46:26 10° WSW 21:51:52 69° SSE 21:55:12 33° E
ERS-2 3.6 21:56:50 26° NE 21:56:50 26° NE 21:58:59 10° N
Cosmos 2278 Rocket 2.5 21:51:48 10° N 21:57:14 47° ENE 21:58:13 43° E
Cosmos 1048 Rocket 3.9 21:53:06 10° N 21:58:11 63° ENE 21:59:08 52° ESE
Intelsat 5-1 Rocket 4.3 21:53:35 10° WSW 21:58:16 32° S 22:01:00 28° SSE
OAO 3 Rocket 3.9 21:57:03 10° WNW 22:01:46 48° N 22:03:25 34° NE
GEOS 3 Rocket 3.8 22:15:11 51° S 22:16:28 69° WSW 22:21:51 10° NW
H-2A R/B 2.1 22:17:33 61° ENE 22:17:33 61° ENE 22:22:23 10° N
Cosmos 1782 Rocket 3.9 22:21:06 58° N 22:21:06 58° N 22:24:42 10° N
Cosmos 1867 3.9 22:16:01 10° NNW 22:21:10 51° NE 22:21:10 51° NE
Cosmos 2100 Rocket 3.9 22:20:47 10° N 22:27:09 73° E 22:27:43 68° ESE
OAO 3 Copernicus 4.3 22:22:35 10° WNW 22:27:23 77° NW 22:27:23 77° NW
Cosmos 44 4.3 22:22:53 10° NNW 22:27:23 41° NE 22:27:23 41° NE
MetOp-A 4.0 22:28:05 86° ESE 22:28:11 87° ENE 22:33:33 10° NNW
Lacrosse 4 Rocket 3.4 22:27:50 10° N 22:29:37 20° NNE 22:29:37 20° NNE
Cosmos 1378 Rocket 4.3 22:28:51 10° NNW 22:32:37 49° WNW 22:32:37 49° WNW
ARGOS 3.3 22:37:55 67° WSW 22:38:08 67° WSW 22:43:28 10° NNW
USA 267 4.3 22:44:14 31° NE 22:45:04 32° NE 22:50:42 10° NNW
Meteor 1-13 Rocket 4.4 22:43:53 10° N 22:49:10 74° NNW 22:49:10 74° NNW
BREEZE-M R/B 4.5 22:29:18 10° SW 23:00:18 80° SE 23:02:32 50° ENE
ERS-1 Rocket 4.2 23:08:43 38° NNW 23:08:43 38° NNW 23:11:48 10° NNW
ATLAS CENTAUR R/B 3.4 23:04:04 10° NW 23:06:53 32° WNW 23:06:53 32° WNW
Cosmos 1802 Rocket 4.4 23:06:31 10° NNW 23:12:10 58° WNW 23:12:10 58° WNW
SL-16 R/B 4.1 23:24:52 19° W 23:27:26 26° WNW 23:32:08 10° N
CZ-3A R/B 4.4 23:04:42 10° NW 23:33:31 77° WSW 23:34:41 70° S
Cosmos 2278 Rocket 4.4 23:37:17 10° WNW 23:40:05 17° W 23:40:05 17° W
